Taurus 1
1 44530U 19059C   25151.85228015  .00005766  00000-0  10668-2 0  9992
2 44530  98.6067 290.8317 0010202  70.4203 289.8099 14.65736661302662
Duchifat 3
1 44854U 19089C   25151.84255627  .00041632  00000-0  83327-3 0  9997
2 44854  36.9439  50.7217 0004845 261.7205  98.3003 15.45790718301595
TO-108
1 44881U 19093C   25151.87116771  .00000949  00000-0  11579-3 0  9997
2 44881  97.7926 227.7029 0012353 258.9073 101.0754 14.85582118294785
FloripaSat 1
1 44885U 19093G   25151.80000207  .00005502  00000-0  46605-3 0  9998
2 44885  97.8175 239.3822 0008938 225.6707 134.3783 14.98379549295435
RS-44
1 44909U 19096E   25151.71954602  .00000022  00000-0  48580-4 0  9992
2 44909  82.5225 233.1640 0216592 316.5259  41.8939 12.79740736253603
UPMSat 2
1 46276U 20061E   25151.17799723  .00061993  00000-0  57239-3 0  9990
2 46276  97.2438 225.2521 0001903 163.5755 196.5568 15.67396465263995
SALSAT
1 46495U 20068K   25151.48154751  .00006742  00000-0  29284-3 0  9990
2 46495  97.8605 129.0913 0011115 184.7084 175.4049 15.22610759257148
CubeSX-Sirius-HSE
1 47951U 21022V   25151.86946828  .00973469  50870-3  14300-2 0  9999
2 47951  97.4123  65.6662 0006351 172.0749 188.0634 16.05144303232475
CubeSX-HSE
1 47952U 21022W   25151.81677127  .00964832  49808-3  14197-2 0  9995
2 47952  97.4085  65.8821 0007351 171.6940 188.4463 16.05098717232483
GRBAlpha
1 47959U 21022AD  25151.70490919  .00696280  22547-3  13182-2 0  9995
2 47959  97.4054  65.7733 0005992 161.8983 198.2510 16.00763026231280
TUBIN
1 48900U 21059X   25151.74473784  .00042084  00000-0  52596-3 0  9994
2 48900  97.6753 320.2579 0002894 244.8633 115.2323 15.59725095218669
LEDSAT
1 49069U 21073D   25151.77619543  .00058391  00000-0  73182-3 0  9997
2 49069  97.3890 232.9530 0010723 115.7498 244.4867 15.59513515210062
CUTE
1 49263U 21088D   25151.17145268  .00013753  00000-0  27825-3 0  9997
2 49263  97.4509 227.1563 0006625 271.6207  88.4284 15.46545927202972
TeikyoSat 4
1 49396U 21102B   25151.85646274  .00002742  00000-0  18382-3 0  9993
2 49396  97.4100 190.6002 0013175 157.2238 202.9578 15.07600739195238
Z-Sat
1 49399U 21102E   25151.89669225  .00003876  00000-0  21410-3 0  9996
2 49399  97.3800 193.6812 0019582 131.1004 229.1923 15.14329666195666
KOSEN 1
1 49402U 21102H   25151.85074944  .00006648  00000-0  30902-3 0  9991
2 49402  97.3707 196.9858 0017736 108.7043 251.6120 15.20163158195966
HO-113
1 50466U 21131B   25151.87185621  .00000574  00000-0  19301-3 0  9994
2 50466  98.5099 241.2676 0004877 149.1166 211.0310 14.40802779180194
IRIS-A
1 51044U 22002BN  25151.72462189  .01050726  68368-3  10517-2 0  9994
2 51044  97.3067 232.7279 0009118 241.5806 118.4560 16.11211652188496
Foresail-1
1 52766U 22057AL  25151.38386976  .00291909  34191-4  88616-3 0  9990
2 52766  97.6021 302.3185 0006567 255.7939 104.2604 15.92024208168431
SNUGLITE 2
1 52899U 22065F   25151.39505628  .00001174  00000-0  23727-3 0  9997
2 52899  98.1677 293.4587 0008594 135.9940 224.1947 14.63189334155145
UmKA 1 (RS40S)
1 57172U 23091G   25151.89026409  .00005695  00000-0  30565-3 0  9996
2 57172  97.5580 207.3180 0014417  11.6542 348.5021 15.15256663106162
CubeBel-2 (EU11S)
1 57175U 23091K   25151.87666364  .00009286  00000-0  44425-3 0  9997
2 57175  97.5578 208.3981 0012334  21.2776 338.8969 15.19138670106236
VERONIKA
1 58261U 23174F   25151.78532607  .00122110  00000-0  10967-2 0  9993
2 58261  97.4120 237.4470 0003414 116.7445 243.4165 15.67874630 87304
ENSO
1 58470U 23185J   25151.88795224  .00048051  00000-0  71750-3 0  9993
2 58470  97.3733 226.7338 0008417 118.9268 241.2832 15.54866491 83680
EIRSAT-1
1 58472U 23185L   25151.83022867  .00095055  00000-0  93629-3 0  9991
2 58472  97.3693 228.4298 0006223 130.3582 229.8223 15.65643986 83793
SONATE-2
1 59112U 24043Q   25151.63267660  .00016169  00000-0  47018-3 0  9997
2 59112  97.5131 282.6334 0012254 142.7890 217.4204 15.35457721 68968
MO-122
1 60209U 24125G   25151.58387894  .00015649  00000-0  44885-3 0  9994
2 60209  97.2802   3.3045 0019508 165.2247 194.9572 15.35772408 50578
GRBBeta
1 60237U 24128C   25151.35279138  .00004660  00000-0  35466-3 0  9990
2 60237  61.9911 111.7278 0051305  55.3929 305.1985 15.02534412 48810
Curium One
1 60242U 24128H   25151.60366915  .00007908  00000-0  55360-3 0  9997
2 60242  61.9809 109.2761 0051278  51.3451 309.2213 15.04944415 48882
ROBUSTA-3A
1 60243U 24128J   25151.60354417  .00007202  00000-0  51262-3 0  9996
2 60243  61.9879 110.0744 0050020  49.0194 311.5209 15.04480940 48871
CatSat
1 60246U 24125J   25151.34085669  .00010454  00000-0  35019-3 0  9992
2 60246  97.2594   2.3828 0044254 126.1085 234.4266 15.30152334 48579
HYPERVIEW-1G (RS66S)
1 61772U 24199AP  25151.87741821  .00018366  00000-0  53922-3 0  9998
2 61772  97.3542  20.7550 0012634 216.9315 143.1060 15.35119340 75624
AO-123
1 61781U 24199AY  25151.87195027  .00006194  00000-0  22715-3 0  9991
2 61781  97.3555  19.7278 0014553 223.9840 136.0242 15.28241042 75558
ZIMSAT 2
1 61783U 24199BA  25151.89320284  .00031428  00000-0  78507-3 0  9998
2 61783  97.3521  21.3194 0012685 212.5381 147.5085 15.40015573 78813
HADES-R (SO-124)
1 62690U 25009CK  25151.18497440  .00033107  00000-0  11935-2 0  9995
2 62690  97.4089 232.0314 0004663 129.9782 230.1868 15.28460096 20713
HYDRA-T
1 62692U 25009CM  25151.17195442  .00034425  00000-0  12319-2 0  9994
2 62692  97.4092 232.0483 0004374 128.3296 231.8337 15.28694620 20719
JINJUSat 1B
1 63210U 25052A   25151.44822732  .00011086  00000-0  51099-3 0  9995
2 63210  97.4425  45.6875 0004584  21.2934 338.8491 15.20429187 11863
NUSHSAT 1
1 63211U 25052B   25151.70766043  .00011439  00000-0  52398-3 0  9992
2 63211  97.4415  45.9429 0004781  25.6330 334.5141 15.20636461 11903
TEVEL2-4
1 63213U 25052D   25151.45628898  .00011722  00000-0  54143-3 0  9996
2 63213  97.4332  45.5859 0004523  43.7673 316.3920 15.20341987 11865
TEVEL2-5
1 63214U 25052E   25151.45676992  .00011642  00000-0  53801-3 0  9996
2 63214  97.4330  45.5854 0004534  44.2656 315.8941 15.20325575 11860
TEVEL2-6
1 63215U 25052F   25151.59030248  .00011383  00000-0  52672-3 0  9997
2 63215  97.4331  45.7137 0004581  43.9315 316.2284 15.20288285 11881
TEVEL2-1
1 63217U 25052H   25151.27096168  .00010462  00000-0  48749-3 0  9994
2 63217  97.4309  45.3521 0005173  54.0458 306.1257 15.20067910 11833
TEVEL2-2
1 63218U 25052J   25151.60040410  .00010553  00000-0  49156-3 0  9995
2 63218  97.4306  45.6766 0005165  53.6850 306.4862 15.20074723 11887
TEVEL2-3
1 63219U 25052K   25151.27135141  .00010692  00000-0  49818-3 0  9994
2 63219  97.4306  45.3521 0005167  54.1247 306.0467 15.20062938 11839
TEVEL2-8
1 63237U 25052AD  25151.26360830  .00010931  00000-0  52662-3 0  9995
2 63237  97.4370  45.2732 0009810  55.8577 304.3586 15.18867151 11825
TEVEL2-9
1 63238U 25052AE  25151.66089408  .00010418  00000-0  50280-3 0  9993
2 63238  97.4372  45.6611 0009854  54.6160 305.5994 15.18819994 11885
TEVEL2-7
1 63239U 25052AF  25151.46499168  .00010509  00000-0  50772-3 0  9997
2 63239  97.4371  45.4633 0009876  55.3760 304.8404 15.18781044 11854
HYDRA-W
1 63490U 25052BL  25151.15022276  .00023407  00000-0  10027-2 0  9993
2 63490  97.4321  45.3751 0013798  53.3144 306.9358 15.22691328 11828
HADES-ICM
1 63492U 25052BN  25151.62276841  .00022289  00000-0  96548-3 0  9996
2 63492  97.4343  45.8198 0014055  54.6724 305.5824 15.22319294 11898
